Location: Newark
(50.0306°N, 2.3272°E)
Time: 07:56:20
(UTC+00:00)

Transit 2A Rocket - Pass Details

Date: 15 December 2019
Orbit: 593 x 910 km, 66.7° (Epoch: 20 January)

Event Time Altitude Azimuth Distance (km) Brightness Sun altitude
Rises 21:19:39 0° 326° (NNW) 2,848 - -51.0°
Reaches altitude 10° 21:22:33 10° 347° (NNW) 1,961 - -51.4°
Maximum altitude 21:25:30 17° 30° (NNE) 1,556 - -51.8°
Drops below altitude 10° 21:28:34 10° 72° (ENE) 2,028 - -52.2°
Sets 21:31:37 0° 92° (E) 2,988 - -52.6°
